www.pogodaiklimat.ru
ПОГОДА в Гаррисберге
Время
и дата
19:56 14.08
20:56 14.08
21:56 14.08
22:56 14.08
23:56 14.08
00:56 15.08
01:56 15.08
02:56 15.08
03:56 15.08
04:56 15.08
05:56 15.08
06:56 15.08
07:56 15.08
08:53 15.08
08:56 15.08
09:56 15.08
10:56 15.08
11:56 15.08
12:56 15.08
13:56 15.08
14:56 15.08
15:56 15.08
16:56 15.08
17:56 15.08
18:56 15.08
19:56 15.08
20:56 15.08
21:56 15.08
22:56 15.08
23:56 15.08
00:56 16.08
01:56 16.08
02:56 16.08
03:56 16.08
04:56 16.08
05:56 16.08
06:56 16.08
07:56 16.08
08:56 16.08
09:56 16.08
10:56 16.08
11:56 16.08
12:56 16.08
13:56 16.08
14:56 16.08
15:56 16.08
16:56 16.08
17:56 16.08
Ветер
(напр.,м/с)
Видим. Явления Облачность Т
(С)
Тd
(С)
f
(%)
Тe
(С)
Тes
(С)
Комфортность P
(гПа)
Po
(гПа)
Тmin
(С)
Tmax
(С)
R
(мм)
R24
(мм)
S
(см)
ЮЗ 1 16 км 10/0 3300 м
[Ac]
+24.4 +13.9 52 +27 +27 жарко 1015.8 1003.6
ЮЗ 1 16 км 10/0 3600 м
[Ac]
+23.3 +13.9 55 +27 +27 душно 1016.2 1003.9
ЮЗ 2 16 км 5/0 2250 м
[Ac]
+22.8 +14.4 59 +26 +26 жарко 1016.1 1003.9
штиль 0 16 км 2/0 3300 м
[Ac]
+21.7 +15.0 66 +25 +25 комфорт 1016.0 1003.9
З 1 16 км 8/2 1800 м
[Ac]
+21.7 +15.6 68 +25 +25 комфорт 1015.8 1003.6
ЮЗ 1 16 км 10/0 3300 м
[Ac]
+21.1 +15.0 68 +24 +24 комфорт 1015.8 1003.6 +21.1 +25.6
ЮЗ 1 16 км слабый дождь 10/5 1200 м
[Ac]
+20.6 +15.6 73 +24 +24 комфорт 1015.8 1003.6
штиль 0 16 км слабый дождь 10/2 1800 м
[Ac]
+20.6 +16.1 75 +23 +23 комфорт 1015.6 1003.6
ЮЗ 1 16 км 10/2 1350 м
[Ac]
+20.0 +16.1 78 +23 +23 комфорт 1015.4 1003.2
штиль 0 16 км 10/0 2550 м
[Ac]
+19.4 +16.1 81 +21 +21 комфорт 1015.6 1003.2
штиль 0 16 км слабый дождь 10/0 2250 м
[Ac]
+19.4 +16.7 84 +21 +21 комфорт 1015.9 1003.6
ЮЗ 1 16 км 10/10 450 м +19.4 +17.2 87 +22 +22 комфорт 1016.2 1003.9 +19.4 +21.1
Ю 1 8 км дождь 10/10 300 м +19.4 +16.1 81 +22 +22 комфорт 1016.5 1004.2
штиль 0 16 км слабый дождь 10/5 1050 м
[Ac]
+20.0 +16.0 78 +22 +24 комфорт 1004.2
штиль 0 16 км слабый дождь 10/5 1050 м
[Ac]
+20.0 +16.1 78 +22 +24 комфорт 1016.4 1004.2
Ю 1 16 км 10/10 1950 м +21.7 +17.2 76 +26 +26 душно 1016.3 1003.9 1.0
В 1 16 км 10/5 630 м
[Ac]
+22.2 +16.7 71 +27 +30 душно 1016.2 1003.9
штиль 0 16 км 10/0 2100 м
[Ac]
+22.8 +13.9 57 +26 +33 жарко 1015.8 1003.6
СВ 1 16 км 8/0 2400 м
[Ac]
+23.9 +15.0 57 +27 +34 жарко 1015.6 1003.2 +19.4 +24.4 1.0
штиль 0 16 км 10/0 2550 м
[Ac]
+24.4 +15.0 56 +27 +34 жарко 1015.4 1003.2
СЗ 1 16 км 10/0 2850 м
[Ac]
+25.0 +15.6 56 +28 +32 жарко 1014.8 1002.6
нст 1 16 км 2/0 3600 м
[Ac]
+25.0 +15.0 54 +28 +37 жарко 1014.3 1002.2
З 1 16 км слабый дождь 10/0 2400 м
[Ac]
+23.9 +16.7 64 +27 +29 жарко 1014.5 1002.2
З 1 16 км 2/2 930 м
[Ac]
+23.3 +17.2 69 +29 +31 душно 1014.5 1002.2
З 1 16 км 2/0 2100 м
[Ac]
+22.2 +16.7 71 +27 +27 душно 1015.0 1002.9 +22.2 +25.6
З 1 16 км 8/0 2100 м
[Ac]
+21.7 +16.7 73 +26 +26 душно 1015.4 1003.2
З 1 16 км 10/0 3300 м
[Ac]
+21.1 +16.1 73 +24 +24 комфорт 1015.9 1003.6
З 1 16 км 8/0 3600 м
[Ac]
+21.1 +16.1 73 +24 +24 комфорт 1015.8 1003.6
З 1 16 км 5/0 3600 м
[Ac]
+20.6 +16.7 78 +25 +25 комфорт 1016.1 1003.9
З 1 16 км ясно +20.0 +16.7 81 +23 +23 комфорт 1016.0 1003.9
З 1 16 км ясно +19.4 +16.1 81 +22 +22 комфорт 1015.6 1003.2 +19.4 +22.2
З 1 16 км ясно +18.3 +16.1 87 +19 +19 1015.8 1003.6
штиль 0 16 км 5/0 3600 м
[Ac]
+18.3 +15.6 84 +19 +19 1015.6 1003.2
штиль 0 16 км ясно +18.3 +16.1 87 +19 +19 1015.6 1003.6
З 1 14 км ясно +18.3 +16.1 87 +19 +19 1015.9 1003.6
ЮЗ 1 13 км ясно +17.8 +15.6 87 +18 +18 1016.2 1003.9
З 1 16 км ясно +20.0 +16.7 81 +23 +24 комфорт 1016.4 1004.2 +17.8 +20.0 1.0
С 1 16 км ясно +22.8 +15.6 64 +27 +29 душно 1016.6 1004.2
нст 1 16 км ясно +23.9 +15.0 57 +27 +32 жарко 1016.8 1004.6
нст 1 16 км ясно +25.6 +14.4 50 +28 +38 жарко 1016.9 1004.6
В 1 16 км ясно +27.2 +14.4 45 +29 +41 жарко 1016.5 1004.2
СВ 2 16 км 5/5 1800 м +28.9 +12.8 37 +30 +36 жарко 1016.3 1004.2
В 2 16 км 8/8 180 м +29.4 +11.7 34 +30 +32 жарко 1016.0 1003.9 +20.0 +29.4
В 2 16 км 5/5 1800 м +28.9 +11.1 33 +29 +34 жарко 1015.4 1003.2
нст 1 16 км 5/5 1800 м +28.9 +11.1 33 +29 +35 жарко 1014.8 1002.6
В 3
{4}
16 км 5/5 1800 м +30.0 +8.3 26 +29 +31 жарко 1014.3 1002.2
ЮВ 2 16 км 2/2 1800 м +28.9 +11.1 33 +29 +33 жарко 1014.5 1002.6
ЮВ 3 16 км ясно +27.8 +10.6 34 +28 +30 жарко 1015.1 1002.9
Местоположение метеостанции Capital City Airport: широта 40.2184 долгота -76.8552 высота над уровнем моря 102 м.
В архиве по умолчанию представлена погода в Гаррисберге за последние 1-2 суток. Обновление информации о фактической погоде в базе происходит ежечасно! Архивные данные за месяц целиком и за предыдущие месяцы Вы можете получить, выбрав интересующий диапазон дат из раскрывающегося списка и нажав кнопку "Ввод!".
Внимание! Архив погоды МЕТАР в базе сайта по станциям, не включенным в климатический монитор, хранится не более 60 дней. Нет смысла пытаться выбрать более раннюю дату.
*Определитесь, кто Вы:
Внимание! Время в таблицах - местное (без учета летнего времени). Для получения всемирного времени необходимо вычесть поправку, которая равна -5 ч.
Смотрите также архив погоды в соседних городах и на ближайших метеорологических станциях:
Партнеры нашего сайта:      
Пояснения к столбцам:
  • Ветер - указаны скорость ветра в м/с - средняя за 10 мин, порывы в срок и между сроками (в фигурных скобках) и направление, откуда дует ветер: С - северный,
  • СВ - северо-восточный, В - восточный, ЮВ - юго-восточный, Ю - южный, ЮЗ - юго-западный, З - западный, СЗ - северо-западный.
  • Видимость - горизонтальная дальность видимости в метрах или километрах. При видимости от 1 до 10 км при отсутствии осадков обычно наблюдается дымка, при ухудшении видимости до 1 км и менее - туман. В сухую погоду видимость может ухудшаться дымом, пылью или мглою.
  • Явления - указаны атмосферные явления, наблюдавшиеся в срок или в последний час перед сроком; фигурными скобками обозначены явления, наблюдавшиеся между сроками (за 1-3 часа до срока); квадратными скобками обозначены град или гололедные отложения с указанием их диаметра в мм.
  • Облачность - указаны через наклонную черту общая и нижняя облачность в баллах и высота нижней границы облаков в метрах; квадратными скобками обозначены формы облаков: Ci - перистые, Cs - перисто-слоистые, Cc - перисто-кучевые, Ac - высококучевые, As - высокослоистые, Sc - слоисто-кучевые, Ns - слоисто-дождевые, Cu - кучевые, Cb - кучево-дождевые. Подробнее классификацию облаков см. в Атласе облаков (PDF).
  • T - Температура воздуха - температура, измеренная на высоте 2 м над землей.
  • Td - Температура точки росы - температура, при понижении до которой содержащийся в воздухе водяной пар достигнет насыщения.
  • f - Относительная влажность воздуха - влажноcть воздуха, измеренная на высоте 2 м над землей.
  • Te - Эффективная температура - температура, которую ощущает одетый по сезону человек в тени. Характеристика душности погоды. При расчете учитывается влияние влажности воздуха и скорости ветра на теплоощущения человека.
  • Tes - Эффективная температура на солнце - температура, которую ощущает человек, с поправкой на солнечный нагрев. Характеристика знойности погоды. Зависит от высоты солнца над горизонтом, облачности и скорости ветра. Ночью, в пасмурную погоду, а также при ветре 12 м/с и более поправка равна нулю.
  • P - Атмосферное давление - приведенное к уровню моря атмосферное давление.
  • Po - Атмосферное давление - измеренное на уровне метеостанции атмосферное давление.
  • Tmin - Минимальная температура - минимум температуры воздуха на высоте 2 м над землей.
  • Tmax - Максимальная температура - максимум температуры воздуха на высоте 2 м над землей.
  • R - Количество осадков - Количество выпавших осадков за период времени, мм. При наведении курсора мыши на число - период времени, за который выпало указанное количество осадков.
  • R24 - Количество осадков - Количество выпавших осадков за 24 часа, мм.
  • S - Снежный покров - Высота снежного покрова, см. При наведении курсора мыши на число - состояние снежного покрова и степень покрытия местности в баллах.